Regional Weather Roundup
Issued by NWS

Home | Current Version | Previous Version | Graphics & Text | Print | Product List | Glossary On
Versions: 1 2 3 4 5 6 7 8 9 10 11 12 13 14 15 16 17 18 19 20 21 22 23 24 25 26 27 28 29 30 31 32 33 34 35 36 37 38 39 40 41 42 43 44 45 46 47 48 49 50
000
ASUS43 KLMK 221710
RWRKY
KENTUCKY REGIONAL WEATHER ROUNDUP
NATIONAL WEATHER SERVICE LOUISVILLE KY
100 PM EDT MON SEP 22 2014

NOTE "FAIR" INDICATES FEW OR NO CLOUDS BELOW 12,000 FEET
WITH NO SIGNIFICANT WEATHER AND/OR OBSTRUCTIONS TO VISIBILITY.

KYZ001>023-026-027-061>063-070>075-221800-
WESTERN AND SOUTH CENTRAL KENTUCKY

CITY           SKY/WX    TMP DP  RH WIND       PRES   REMARKS
PADUCAH        SUNNY     73  51  46 N7        30.25S
HENDERSON      MOSUNNY   64  46  52 N5        30.27S
OWENSBORO      MOSUNNY   66  49  54 NW7       30.26F
HOPKINSVILLE   SUNNY     70  50  49 NE13      30.22F
BOWLING GREEN  SUNNY     67  49  52 N8        30.23S
GLASGOW        SUNNY     67  47  49 N6        30.22F
$$

KYZ024-025-028>034-038-045-046-053-221800-
NORTH CENTRAL KENTUCKY

CITY           SKY/WX    TMP DP  RH WIND       PRES   REMARKS
LOUISVILLE/SDF MOSUNNY   63  45  51 N10G20    30.25S
LOUISVILLE/LOU SUNNY     62  44  51 NW12      30.26S
FORT KNOX      SUNNY     62  47  58 NW10      30.23S
$$

KYZ035>037-039>044-047>052-055>060-089>105-221800-
NORTHEAST KENTUCKY

CITY           SKY/WX    TMP DP  RH WIND       PRES   REMARKS
LEXINGTON      SUNNY     63  45  51 NW8       30.23F
COVINGTON      MOSUNNY   60  43  53 NW10      30.25R
FRANKFORT      SUNNY     62  43  49 N7        30.22F
$$

KYZ054-064>069-076>088-106>120-221800-
SOUTHEAST KENTUCKY

CITY           SKY/WX    TMP DP  RH WIND       PRES   REMARKS
JACKSON        PTSUNNY   63  48  58 NW5       30.21S
LONDON         MOSUNNY   65  46  50 VRB7      30.22R
SOMERSET       SUNNY     63  45  51 N6        30.23S
MIDDLESBORO    SUNNY     66  49  53 N10G16    30.19S
MONTICELLO     MOSUNNY   67  48  50 VRB7      30.23R
$$



USA.gov is the U.S. government's official web portal to all federal, state and local government web resources and services.